Whiteman AFB, MO

6:05 AM CDT on March 30, 2017 (GMT -0500)
Whiteman Air Force Base

Weather History for KSZL - September, 2012

Change the Weather History Date:

Tuesday, September 11, 2012

  Actual Average Record
Temperature  
Mean Temperature 74 °F -  
Max Temperature 89 °F 80 °F 100 °F (2000)
Min Temperature 58 °F 59 °F 49 °F (2007)
Cooling Degree Days 8    
Growing Degree Days 24 (Base 50)    
Moisture  
Dew Point 57 °F    
Average Humidity 60    
Maximum Humidity 93    
Minimum Humidity 31    
Precipitation  
Precipitation 0.00 in - - ()
Sea Level Pressure  
Sea Level Pressure 30.04 in    
Wind  
Wind Speed 9 mph (South)    
Max Wind Speed 14 mph    
Max Gust Speed 18 mph    
Visibility 10 miles    
Events      
Averages and records for this station are not official NWS values.
T = Trace of Precipitation, MM = Missing Value Source: NWS Daily Summary

Daily Weather History Graph

Daily Weather History Graph

Search for Another Location

Airport or City:

Trip Planner

Search our weather history database for the weather conditions in past years. The results will help you decide how hot, cold, wet, or windy it might be!

Date:

Astronomy

Sep. 11, 2012 Rise Set
Actual Time 6:52 AM CDT 7:27 PM CDT
Civil Twilight 6:25 AM CDT 7:54 PM CDT
Nautical Twilight 5:54 AM CDT 8:26 PM CDT
Astronomical Twilight 5:21 AM CDT 8:58 PM CDT
Moon 2:12 AM CDT (9/11) 4:36 PM CDT (9/11)
Length of Visible Light 13h 28m
Length of Day
12h 35m
Waning Crescent, 21% of the Moon is Illuminated
Sep 11
Waning Crescent
Sep 15
New
Sep 22
First Quarter
Sep 29
Full
Oct 8
Last Quarter

Hourly Weather History & Observations

Time (CDT) Temp. Heat Index Dew Point Humidity Pressure Visibility Wind Dir Wind Speed Gust Speed Precip Events Conditions
12:55 AM 61.5 °F - 54.3 °F 77% 30.05 in 10.0 mi South 6.9 mph - N/A   Clear
1:55 AM 61.2 °F - 54.7 °F 79% 30.04 in 10.0 mi SSE 8.1 mph - N/A   Clear
2:55 AM 60.4 °F - 55.2 °F 83% 30.04 in 10.0 mi SSE 9.2 mph - N/A   Clear
3:55 AM 59.2 °F - 55.4 °F 87% 30.04 in 10.0 mi South 8.1 mph - N/A   Clear
4:55 AM 60.8 °F - 55.6 °F 83% 30.04 in 10.0 mi South 8.1 mph - N/A   Clear
5:55 AM 59.9 °F - 56.1 °F 87% 30.05 in 10.0 mi South 8.1 mph - N/A   Clear
6:55 AM 58.8 °F - 56.8 °F 93% 30.07 in 10.0 mi South 6.9 mph - N/A   Clear
7:55 AM 60.4 °F - 57.7 °F 91% 30.08 in 10.0 mi South 8.1 mph - N/A   Clear
8:55 AM 66.9 °F - 59.0 °F 76% 30.09 in 10.0 mi South 11.5 mph - N/A   Clear
9:55 AM 72.9 °F - 59.2 °F 62% 30.08 in 10.0 mi SSW 13.8 mph - N/A   Clear
10:55 AM 77.9 °F - 58.5 °F 51% 30.09 in 10.0 mi SW 11.5 mph - N/A   Clear
11:55 AM 81.9 °F 82.2 °F 59.5 °F 47% 30.07 in 10.0 mi SSW 10.4 mph - N/A   Clear
12:55 PM 84.7 °F 84.6 °F 60.1 °F 43% 30.06 in 10.0 mi South 10.4 mph - N/A   Clear
1:55 PM 87.3 °F 86.3 °F 58.1 °F 37% 30.04 in 10.0 mi South 12.7 mph - N/A   Clear
2:55 PM 88.3 °F 86.7 °F 55.6 °F 33% 30.02 in 10.0 mi South 12.7 mph 18.4 mph N/A   Clear
3:55 PM 89.6 °F 87.9 °F 56.5 °F 32% 30.00 in 10.0 mi SSE 11.5 mph 17.3 mph N/A   Clear
4:55 PM 89.1 °F 87.1 °F 54.3 °F 31% 29.99 in 10.0 mi SSW 11.5 mph - N/A   Clear
5:55 PM 87.4 °F 85.7 °F 55.0 °F 33% 29.98 in 10.0 mi SSE 10.4 mph - N/A   Clear
6:55 PM 83.1 °F 82.4 °F 56.7 °F 40% 29.98 in 10.0 mi SSE 8.1 mph - N/A   Clear
7:55 PM 77.0 °F - 55.4 °F 47% 29.99 in 10.0 mi SSE 6.9 mph - N/A   Clear
8:55 PM 76.3 °F - 56.8 °F 51% 30.01 in 10.0 mi SSE 9.2 mph - N/A   Clear
9:55 PM 74.5 °F - 57.7 °F 56% 30.01 in 10.0 mi SSE 11.5 mph - N/A   Clear
10:55 PM 72.7 °F - 58.3 °F 60% 30.02 in 10.0 mi SSE 10.4 mph - N/A   Clear
11:55 PM 70.3 °F - 58.3 °F 66% 30.03 in 10.0 mi SSE 8.1 mph - N/A   Clear